User: anonymous   Login
Location: Hurstbourne Priors
(51.2000°N, 1.3667°W)
Time: 10:09:41
(UTC+00:00)
Language:

SR - Orbit

View from above orbital plane
View from above orbital plane
View from above satellite
View from above satellite

Ground track
Ground track

The orbit data is extracted from the following two-line orbital elements,

1 00046U 60007B   21108.88823015  .00000059  00000-0  34362-4 0  9996
2 00046  66.6894 301.1754 0217581 263.7773  93.8511 14.49387562183379
Epoch (UTC): 18 April 2021 21:19:03
Eccentricity: 0.0217581
inclination: 66.6894°
perigee height: 573 km
apogee height: 882 km
right ascension of ascending node: 301.1754°
argument of perigee: 263.7773°
revolutions per day: 14.49387562
mean anomaly at epoch: 93.8511°
orbit number at epoch: 18337

The dashed part of the orbit path shows where the satellite is in the earth's shadow,  

DLR